User: anonymous   Login
Location: Carri�res
(48.9069°N, 2.1792°E)
Time: 08:59:04
(UTC+00:00)
Language:

COSMOS 2455 - Orbit

View from above orbital plane
View from above orbital plane
View from above satellite
View from above satellite

Ground track
Ground track

The orbit data is extracted from the following two-line orbital elements,

1 36095U 09063A   21102.57626668 -.00000050  00000-0  18227-4 0  9993
2 36095  67.1476 172.0201 0003834 252.1309 107.9357 13.96767269581124
Epoch (UTC): 12 April 2021 13:49:49
Eccentricity: 0.0003834
inclination: 67.1476°
perigee height: 902 km
apogee height: 908 km
right ascension of ascending node: 172.0201°
argument of perigee: 252.1309°
revolutions per day: 13.96767269
mean anomaly at epoch: 107.9357°
orbit number at epoch: 58112

The dashed part of the orbit path shows where the satellite is in the earth's shadow,  

DLR